Kenai, AK

1:10 PM AKDT on May 29, 2017 (GMT -0800)
Kenai Municipal

Weather History for PAEN - March, 2012

Change the Weather History Date:

Thursday, March 29, 2012

  Actual Average Record
Temperature  
Mean Temperature 38 °F -  
Max Temperature 44 °F 36 °F 48 °F (1983)
Min Temperature 30 °F 17 °F -11 °F (1968)
Degree Days  
Heating Degree Days 27    
Moisture  
Dew Point 27 °F    
Average Humidity 65    
Maximum Humidity 79    
Minimum Humidity 49    
Precipitation  
Precipitation 0.00 in - - ()
Sea Level Pressure  
Sea Level Pressure 29.01 in    
Wind  
Wind Speed 11 mph (NNE)    
Max Wind Speed 16 mph    
Max Gust Speed -    
Visibility 10 miles    
Events      
Averages and records for this station are not official NWS values.
T = Trace of Precipitation, MM = Missing Value Source: NWS Daily Summary

Daily Weather History Graph

Daily Weather History Graph

Search for Another Location

Airport or City:

Trip Planner

Search our weather history database for the weather conditions in past years. The results will help you decide how hot, cold, wet, or windy it might be!

Date:

Astronomy

Mar. 29, 2012 Rise Set
Actual Time 7:36 AM AKDT 8:44 PM AKDT
Civil Twilight 6:53 AM AKDT 9:27 PM AKDT
Nautical Twilight 5:59 AM AKDT 10:21 PM AKDT
Astronomical Twilight 4:57 AM AKDT 11:24 PM AKDT
Moon 10:27 AM AKDT 4:10 AM AKDT
Length of Visible Light 14h 34m
Length of Day
13h 07m
Waxing Crescent, 41% of the Moon is Illuminated
Mar 29
Waxing Crescent
Mar 30
First Quarter
Apr 6
Full
Apr 13
Last Quarter
Apr 20
New

Hourly Weather History & Observations

Time (AKDT) Temp. Windchill Dew Point Humidity Pressure Visibility Wind Dir Wind Speed Gust Speed Precip Events Conditions
12:53 AM 36.0 °F 28.5 °F 27.0 °F 70% 29.02 in 10.0 mi NNE 10.4 mph - N/A   Scattered Clouds
1:53 AM 37.0 °F 28.9 °F 28.0 °F 70% 29.01 in 10.0 mi NNE 12.7 mph - N/A   Scattered Clouds
2:53 AM 36.0 °F 27.1 °F 27.0 °F 70% 29.01 in 10.0 mi NNE 13.8 mph - N/A   Scattered Clouds
3:53 AM 37.9 °F 29.2 °F 26.1 °F 62% 29.00 in 10.0 mi NNE 15.0 mph - N/A   Mostly Cloudy
4:53 AM 36.0 °F 26.3 °F 28.0 °F 73% 29.00 in 10.0 mi NE 16.1 mph - N/A   Mostly Cloudy
5:53 AM 36.0 °F 27.5 °F 24.1 °F 62% 29.00 in 10.0 mi NNE 12.7 mph - N/A   Scattered Clouds
6:53 AM 35.1 °F 25.9 °F 24.1 °F 64% 29.00 in 10.0 mi NNE 13.8 mph - N/A   Mostly Cloudy
7:53 AM 36.0 °F 28.0 °F 25.0 °F 64% 29.00 in 10.0 mi NNE 11.5 mph - N/A   Overcast
8:53 AM 35.1 °F 25.5 °F 26.1 °F 70% 29.00 in 10.0 mi NE 15.0 mph - N/A   Clear
9:53 AM 37.0 °F 32.4 °F 28.0 °F 70% 29.01 in 10.0 mi NNE 5.8 mph - N/A   Clear
10:53 AM 39.0 °F 32.3 °F 28.9 °F 67% 29.01 in 10.0 mi North 10.4 mph - N/A   Clear
11:53 AM 39.0 °F 31.8 °F 28.0 °F 65% 29.01 in 10.0 mi NNE 11.5 mph - N/A   Clear
12:53 PM 37.9 °F 30.0 °F 28.0 °F 68% 29.01 in 10.0 mi NNE 12.7 mph - N/A   Clear
1:53 PM 37.9 °F 30.5 °F 28.0 °F 68% 29.01 in 10.0 mi North 11.5 mph - N/A   Clear
2:53 PM 37.9 °F 32.1 °F 28.0 °F 68% 29.01 in 10.0 mi North 8.1 mph - N/A   Clear
3:53 PM 41.0 °F 36.4 °F 27.0 °F 57% 29.01 in 10.0 mi NNE 6.9 mph - N/A   Mostly Cloudy
4:53 PM 41.0 °F 34.7 °F 27.0 °F 57% 29.01 in 10.0 mi NE 10.4 mph - N/A   Clear
5:53 PM 44.6 °F 42.2 °F 26.6 °F 49% 29.00 in 10.0 mi North 4.6 mph - N/A   Partly Cloudy
6:53 PM 41.0 °F 36.4 °F 27.0 °F 57% 29.00 in 10.0 mi North 6.9 mph - N/A   Overcast
7:53 PM 41.0 °F 39.0 °F 26.1 °F 55% 29.01 in 10.0 mi North 3.5 mph - N/A   Overcast
8:53 PM 37.9 °F 34.4 °F 26.1 °F 62% 29.02 in 10.0 mi NNW 4.6 mph - N/A   Partly Cloudy
9:53 PM 37.9 °F 34.4 °F 24.1 °F 57% 29.02 in 10.0 mi NNW 4.6 mph - N/A   Scattered Clouds
10:53 PM 32.0 °F 28.7 °F 25.0 °F 75% 29.03 in 10.0 mi North 3.5 mph - N/A   Clear
11:53 PM 30.0 °F - 24.1 °F 79% 29.04 in 10.0 mi Calm Calm - N/A   Clear